Location: Medlow Airstrip Trail, Medlow Bath NSW 2780, Australia
(33.6682°S, 150.3233°E)
Time: 07:42:06
(UTC+11:00)

Vanguard 2 - All Passes

Search period start: 15 October 2019 00:00
Search period end: 25 October 2019 00:00
Orbit: 554 x 2937 km, 32.9° (Epoch: 14 October)

Date Brightness Start Highest point End Pass type
(mag) Time Alt. Az. Time Alt. Az. Time Alt. Az.
15 Oct - 05:06:24 10° N 05:12:41 16° NNE 05:17:43 10° ENE visible
15 Oct - 07:13:34 10° NW 07:22:40 38° NNE 07:28:27 10° E daylight
15 Oct - 09:24:20 10° WNW 09:31:35 72° N 09:36:16 10° E daylight
15 Oct - 11:34:56 10° W 11:39:56 75° N 11:43:55 10° ENE daylight
15 Oct - 13:44:22 10° W 13:47:45 26° NNW 13:51:19 10° NE daylight
16 Oct - 05:22:02 10° NNW 05:30:53 22° NNE 05:37:17 10° ENE visible
16 Oct - 07:31:09 10° NW 07:40:43 49° NNE 07:46:35 10° E daylight
16 Oct - 09:42:30 10° W 09:49:36 81° N 09:54:13 10° E daylight
16 Oct - 11:53:03 10° W 11:57:52 62° NNW 12:01:49 10° ENE daylight
16 Oct - 14:02:58 10° WNW 14:05:36 17° NNW 14:08:21 10° NNE daylight
17 Oct - 03:36:39 10° NNE 03:38:18 10° NNE 03:39:52 10° NE visible
17 Oct - 05:38:34 10° NNW 05:49:03 30° NNE 05:56:05 10° E visible
17 Oct - 07:49:00 10° WNW 07:58:46 60° NNE 08:04:37 10° E daylight
17 Oct - 10:00:43 10° W 10:07:37 84° N 10:12:09 10° E daylight
17 Oct - 12:11:11 10° W 12:15:46 46° NNW 12:19:35 10° NE daylight
18 Oct - 03:48:42 10° N 03:56:33 16° NNE 04:02:56 10° ENE visible
18 Oct - 05:55:39 10° NW 06:07:10 39° NNE 06:14:30 10° E daylight
18 Oct - 08:07:05 10° WNW 08:16:49 71° NNE 08:22:35 10° E daylight
18 Oct - 10:18:56 10° W 10:25:37 82° N 10:30:04 10° E daylight
18 Oct - 12:29:25 10° W 12:33:35 32° NNW 12:37:11 10° NE daylight
19 Oct - 04:04:06 10° NNW 04:14:44 23° NNE 04:22:41 10° ENE visible
19 Oct - 06:13:07 10° NW 06:25:17 49° NNE 06:32:41 10° E daylight
19 Oct - 08:25:17 10° WNW 08:34:51 80° N 08:40:32 10° E daylight
19 Oct - 10:37:09 10° W 10:43:36 73° NNW 10:47:59 10° ENE daylight
19 Oct - 12:47:52 10° W 12:51:20 22° NNW 12:54:27 10° NNE daylight
20 Oct - 04:20:26 10° NNW 04:32:54 31° NNE 04:41:38 10° E visible
20 Oct - 06:30:55 10° WNW 06:43:22 60° NNE 06:50:46 10° E daylight
20 Oct - 08:43:34 10° W 08:52:55 85° N 08:58:28 10° E daylight
20 Oct - 10:55:22 10° W 11:01:32 59° NNW 11:05:48 10° ENE daylight
20 Oct - 13:06:52 10° WNW 13:09:01 13° NW 13:11:03 10° N daylight
21 Oct - 02:31:21 10° N 02:39:53 16° NE 02:47:11 10° ENE visible
21 Oct - 04:37:21 10° NW 04:51:02 40° NNE 05:00:09 10° E visible
21 Oct - 06:48:57 10° WNW 07:01:28 70° NNE 07:08:46 10° E daylight
21 Oct - 09:01:53 10° W 09:10:58 85° N 09:16:24 10° E daylight
21 Oct - 11:13:36 10° W 11:19:22 44° NNW 11:23:29 10° NE daylight
22 Oct - 02:46:22 10° N 02:58:01 23° NE 03:07:21 10° E visible
22 Oct - 04:54:41 10° NW 05:09:09 49° NNE 05:18:26 10° E visible
22 Oct - 07:07:09 10° WNW 07:19:33 78° N 07:26:43 10° E daylight
22 Oct - 09:20:12 10° W 09:29:00 80° N 09:34:19 10° ENE daylight
22 Oct - 11:31:57 10° W 11:37:07 31° NNW 11:40:57 10° NE daylight
23 Oct - 03:02:26 10° NNW 03:16:07 31° NNE 03:26:32 10° E visible
23 Oct - 05:12:20 10° NW 05:27:16 59° NNE 05:36:34 10° E visible
23 Oct - 07:25:28 10° W 07:37:40 84° N 07:44:41 10° E daylight
23 Oct - 09:38:29 10° W 09:47:00 71° NNW 09:52:10 10° ENE daylight
23 Oct - 11:50:33 10° W 11:54:44 21° NW 11:58:05 10° NNE daylight
24 Oct - 01:14:55 10° NNE 01:22:48 15° NE 01:30:03 10° ENE visible
24 Oct - 03:19:08 10° NNW 03:34:11 39° NNE 03:45:13 10° E visible
24 Oct - 05:30:16 10° WNW 05:45:23 69° NNE 05:54:37 10° E visible
24 Oct - 07:43:51 10° W 07:55:47 86° N 08:02:38 10° E daylight
24 Oct - 09:56:47 10° W 10:04:54 58° NNW 10:09:56 10° ENE daylight
24 Oct - 12:09:49 10° WNW 12:12:16 13° NW 12:14:27 10° N daylight
